This is the latest recevied weather packets stored in our database for station/object OK1VOF-13. If no packets are shown the sender has not sent any weather packets the latest 10 day(s).
| Time | Temp. | Humidity | Pressure | Rain* | Wind** | Luminosity | Snow |
|---|---|---|---|---|---|---|---|
| 1777881816 | 21.11° C | 33% | 1016.4 hPa | 0 mm | - | - | - |
| 1777881517 | 20.56° C | 34% | 1016.4 hPa | 0 mm | - | - | - |
| 1777881219 | 20.56° C | 33% | 1016.3 hPa | 0 mm | - | - | - |
| 1777880920 | 20° C | 34% | 1016.4 hPa | 0 mm | - | - | - |
| 1777880621 | 20° C | 34% | 1016.4 hPa | 0 mm | - | - | - |
| 1777880322 | 20° C | 34% | 1016.3 hPa | 0 mm | - | - | - |
| 1777880023 | 20° C | 34% | 1016.3 hPa | 0 mm | - | - | - |
| 1777879725 | 19.44° C | 35% | 1016.3 hPa | 0 mm | - | - | - |
| 1777879426 | 19.44° C | 35% | 1016.3 hPa | 0 mm | - | - | - |
| 1777879127 | 19.44° C | 34% | 1016.2 hPa | 0 mm | - | - | - |
| 1777878828 | 18.89° C | 36% | 1016.2 hPa | 0 mm | - | - | - |
| 1777878529 | 18.89° C | 36% | 1016.2 hPa | 0 mm | - | - | - |
| 1777878231 | 17.78° C | 37% | 1016.1 hPa | 0 mm | - | - | - |
| 1777877933 | 17.78° C | 36% | 1016.1 hPa | 0 mm | - | - | - |
| 1777877633 | 18.33° C | 36% | 1016.2 hPa | 0 mm | - | - | - |
| 1777877334 | 17.78° C | 36% | 1016.3 hPa | 0 mm | - | - | - |
| 1777877036 | 17.78° C | 37% | 1016.2 hPa | 0 mm | - | - | - |
| 1777876737 | 17.78° C | 37% | 1016.2 hPa | 0 mm | - | - | - |
| 1777876438 | 17.22° C | 36% | 1016.3 hPa | 0 mm | - | - | - |
| 1777876139 | 17.22° C | 37% | 1016.2 hPa | 0 mm | - | - | - |
| 1777875840 | 17.22° C | 37% | 1016.2 hPa | 0 mm | - | - | - |
| 1777875542 | 17.22° C | 37% | 1016.2 hPa | 0 mm | - | - | - |
| 1777875243 | 16.67° C | 38% | 1016.4 hPa | 0 mm | - | - | - |
| 1777874944 | 16.67° C | 38% | 1016.3 hPa | 0 mm | - | - | - |
| 1777874645 | 16.67° C | 38% | 1016.4 hPa | 0 mm | - | - | - |
* Rain latest hour (hover to see other rain measurements)
** Current wind speed in m/s (hover to see current wind gust speed)